Torino, Italy

1:23 AM CET on December 15, 2018 (GMT +0100)
Caselle

Weather History for LIMF - October, 2018

Change the Weather History Date:

Friday, October 12, 2018

  Actual Average Record
Temperature  
Mean Temperature 64 °F -  
Max Temperature 72 °F 58 °F 84 °F (2011)
Min Temperature 55 °F 41 °F 35 °F (2016)
Degree Days  
Heating Degree Days 2    
Growing Degree Days 14 (Base 50)    
Moisture  
Dew Point 57 °F    
Average Humidity 85    
Maximum Humidity 100    
Minimum Humidity 50    
Precipitation  
Precipitation 0.00 in 0.11 in - ()
Sea Level Pressure  
Sea Level Pressure 30.29 in    
Wind  
Wind Speed 2 mph ()    
Max Wind Speed 6 mph    
Max Gust Speed -    
Visibility 4.0 miles    
Events      
Averages and records for this station are not official NWS values.
T = Trace of Precipitation, MM = Missing Value Source: Averaged Metar Reports

Daily Weather History Graph

Daily Weather History Graph

Search for Another Location

Airport or City:

Astronomy

Oct. 12, 2018 Rise Set
Actual Time 7:41 AM CEST 6:49 PM CEST
Civil Twilight 7:11 AM CEST 7:19 PM CEST
Nautical Twilight 6:37 AM CEST 7:53 PM CEST
Astronomical Twilight 6:03 AM CEST 8:27 PM CEST
Moon 11:06 AM CEST (10/12) 9:07 PM CEST (10/12)
Length of Visible Light 12h 07m
Length of Day
11h 08m
Waxing Crescent, 12% of the Moon is Illuminated
Oct 12
Waxing Crescent
Oct 16
First Quarter
Oct 24
Full
Oct 31
Last Quarter
Nov 7
New

Hourly Weather History & Observations

Time (CEST) Temp. Dew Point Humidity Pressure Visibility Wind Dir Wind Speed Gust Speed Precip Events Conditions
12:20 AM 57.2 °F 57.2 °F 100% 30.24 in 5.0 mi West 3.5 mph - N/A   Mostly Cloudy
12:50 AM 57.2 °F 57.2 °F 100% 30.24 in 3.7 mi West 1.2 mph - N/A   Mostly Cloudy
1:20 AM 57.2 °F 57.2 °F 100% 30.24 in 1.9 mi Variable 1.2 mph - N/A   Mostly Cloudy
1:50 AM 57.2 °F 57.2 °F 100% 30.24 in 1.9 mi Variable 2.3 mph - N/A   Mostly Cloudy
2:00 AM 57 °F 57 °F 100% 30.27 in 2 mi 1.2 mph - -   Mist
2:20 AM 57.2 °F 57.2 °F 100% 30.27 in 1.9 mi Variable 2.3 mph - N/A   Mostly Cloudy
2:50 AM 57.2 °F 57.2 °F 100% 30.27 in 1.9 mi Calm Calm - N/A   Mostly Cloudy
3:20 AM 57.2 °F 57.2 °F 100% 30.27 in 1.9 mi Variable 2.3 mph - N/A   Mostly Cloudy
3:50 AM 57.2 °F 57.2 °F 100% 30.27 in 1.2 mi Variable 1.2 mph - N/A   Mostly Cloudy
4:20 AM 57.2 °F 57.2 °F 100% 30.27 in 1.2 mi WSW 2.3 mph - N/A   Mostly Cloudy
4:50 AM 57.2 °F 57.2 °F 100% 30.27 in 1.6 mi Variable 1.2 mph - N/A   Mostly Cloudy
5:00 AM 57 °F 57 °F 99% 30.28 in 2 mi Calm Calm - -   Mist
5:20 AM 57.2 °F 57.2 °F 100% 30.27 in 0.7 mi SSE 3.5 mph - N/A   Mostly Cloudy
5:50 AM 57.2 °F 57.2 °F 100% 30.27 in 1.2 mi SSW 3.5 mph - N/A   Mostly Cloudy
6:20 AM 57.2 °F 57.2 °F 100% 30.27 in 1.2 mi SW 4.6 mph - N/A   Mostly Cloudy
6:50 AM 57.2 °F 57.2 °F 100% 30.27 in 1.9 mi SW 3.5 mph - N/A   Mostly Cloudy
7:20 AM 57.2 °F 57.2 °F 100% 30.30 in 1.9 mi WSW 3.5 mph - N/A   Mostly Cloudy
7:50 AM 57.2 °F 57.2 °F 100% 30.30 in 1.6 mi Variable 1.2 mph - N/A   Mostly Cloudy
8:00 AM 57 °F 57 °F 98% 30.32 in 2 mi East 1.2 mph - -   Mist
8:20 AM 57.2 °F 57.2 °F 100% 30.30 in 1.6 mi Variable 1.2 mph - N/A   Mostly Cloudy
8:50 AM 57.2 °F 57.2 °F 100% 30.33 in 1.6 mi Variable 1.2 mph - N/A   Mostly Cloudy
9:20 AM 59.0 °F 57.2 °F 94% 30.33 in 2.8 mi Variable 1.2 mph - N/A   Mostly Cloudy
9:50 AM 60.8 °F 57.2 °F 88% 30.33 in 5.0 mi Variable 1.2 mph - N/A   Mostly Cloudy
10:20 AM 60.8 °F 57.2 °F 88% 30.36 in 5.0 mi Variable 1.2 mph - N/A   Scattered Clouds
10:50 AM 62.6 °F 59.0 °F 88% 30.36 in 5.0 mi Variable 1.2 mph - N/A   Mostly Cloudy
11:20 AM 64.4 °F 57.2 °F 77% 30.36 in 6.2 mi SSW 3.5 mph - N/A   Scattered Clouds
11:50 AM 64.4 °F 59.0 °F 83% 30.33 in 6.2 mi SSW 3.5 mph - N/A   Scattered Clouds
12:20 PM 66.2 °F 57.2 °F 73% 30.33 in 6.2 mi Variable 3.5 mph - N/A   Scattered Clouds
12:50 PM 66.2 °F 57.2 °F 73% 30.33 in 6.2 mi SSW 4.6 mph - N/A   Partly Cloudy
1:20 PM 68.0 °F 59.0 °F 73% 30.30 in - South 3.5 mph - N/A   Clear
1:50 PM 69.8 °F 57.2 °F 64% 30.30 in - South 4.6 mph - N/A   Clear
2:00 PM 69 °F 57 °F 56% 30.31 in 9 mi South 4.6 mph - -   Scattered Clouds
2:20 PM 69.8 °F 57.2 °F 64% 30.30 in - SSW 4.6 mph - N/A   Clear
2:50 PM 69.8 °F 57.2 °F 64% 30.27 in - ESE 4.6 mph - N/A   Clear
3:20 PM 71.6 °F 57.2 °F 60% 30.27 in - South 3.5 mph - N/A   Clear
3:50 PM 71.6 °F 57.2 °F 60% 30.27 in - Variable 3.5 mph - N/A   Clear
4:20 PM 71.6 °F 55.4 °F 57% 30.27 in - Variable 3.5 mph - N/A   Clear
4:50 PM 71.6 °F 55.4 °F 57% 30.27 in - East 4.6 mph - N/A   Clear
5:00 PM 71 °F 56 °F 50% 30.29 in 16 mi 2.3 mph - -  
5:20 PM 71.6 °F 55.4 °F 57% 30.27 in - Variable 2.3 mph - N/A   Clear
5:50 PM 69.8 °F 57.2 °F 64% 30.27 in - ENE 3.5 mph - N/A   Clear
6:20 PM 68.0 °F 57.2 °F 68% 30.27 in - East 4.6 mph - N/A   Clear
7:20 PM 66.2 °F 57.2 °F 73% 30.30 in - NNE 2.3 mph - N/A   Clear
7:50 PM 66.2 °F 57.2 °F 73% 30.30 in - WNW 4.6 mph - N/A   Clear
8:00 PM 64 °F 58 °F 75% 30.32 in 12 mi WNW 4.6 mph - -  
8:20 PM 64.4 °F 59.0 °F 83% 30.30 in - WNW 5.8 mph - N/A   Clear
8:50 PM 62.6 °F 59.0 °F 88% 30.30 in - WNW 5.8 mph - N/A   Clear
9:20 PM 62.6 °F 57.2 °F 82% 30.30 in - NW 5.8 mph - N/A   Clear
9:50 PM 60.8 °F 57.2 °F 88% 30.30 in - WNW 4.6 mph - N/A   Clear
10:20 PM 60.8 °F 57.2 °F 88% 30.30 in - WNW 2.3 mph - N/A   Clear
10:50 PM 57.2 °F 55.4 °F 94% 30.30 in - ESE 3.5 mph - N/A   Clear
11:00 PM 56 °F 56 °F 100% 30.33 in 12 mi SE 2.3 mph - -  
11:20 PM 55.4 °F 55.4 °F 100% 30.30 in - SSE 2.3 mph - N/A   Clear
11:50 PM 57.2 °F 55.4 °F 94% 30.30 in - NNW 3.5 mph - N/A   Clear